Regional Weather Roundup
Issued by NWS Green Bay, WI

Home | Current Version | Previous Version | Graphics & Text | Print | Product List | Glossary Off
Versions: 1 2 3 4 5 6 7 8 9 10 11 12 13 14 15 16 17 18 19 20 21 22 23 24 25 26 27 28 29 30 31 32 33 34 35 36 37 38 39 40 41 42 43 44 45 46 47 48 49 50

000
ASUS43 KGRB 231011
RWRGRB

NORTH-CENTRAL AND NORTHEAST WISCONSIN REGIONAL WEATHER ROUNDUP
NATIONAL WEATHER SERVICE GREEN BAY WI
500 AM CDT FRI JUN 23 2017

WIZ005-009-010>012-018-019-231100-
NORTH CENTRAL WISCONSIN

CITY           SKY/WX    TMP DP  RH WIND       PRES   REMARKS
IRONWOOD       CLEAR     57  51  80 SW8       29.64F
MANITOWISH WTR FOG       48  48 100 CALM      29.67S VSB 1/2
ARBOR VITAE    FOG       54  53  97 CALM      29.68S VSB 1
EAGLE RIVER    FOG       47  47 100 CALM      29.68R VSB<1/4
LAND O LAKES   FOG       48  48 100 CALM      29.69S VSB 1/4
RHINELANDER    FOG       49  49 100 W7        29.69S VSB 1/4
PHILLIPS       CLEAR     54  53  99 CALM      29.68S
ANTIGO         CLEAR     54  54 100 W5        29.69F
TOMAHAWK       NOT AVBL
MERRILL        CLEAR     56  56 100 NW3       29.69F
$$

WIZ013-073-231100-
NORTHEAST WISCONSIN

CITY           SKY/WX    TMP DP  RH WIND       PRES   REMARKS
IRON MOUNTAIN  CLEAR     56  53  90 NW3       29.64R
MARINETTE      CLOUDY    62  61  96 CALM      29.64S
OCONTO         CLOUDY    62  61  96 W3        29.64F
$$

WIZ017-030-035>037-045-231100-
CENTRAL WISCONSIN

CITY           SKY/WX    TMP DP  RH WIND       PRES   REMARKS
MEDFORD        CLEAR     56  56  99 W5        29.70F
WAUSAU         CLEAR     57  57 100 CALM      29.68S FOG
MOSINEE        FOG       57  57 100 W3        29.71R VSB 1/4
MARSHFIELD     FOG       57  55  93 W5        29.69S VSB 3/4
WISC RAPIDS    FOG       62  61  96 CALM      29.71R VSB 3/4
STEVENS POINT  FOG       59  59 100 CALM      29.70R VSB 3/4
WAUPACA        CLOUDY    64  64  98 CALM      29.69R FOG
SHAWANO        PTCLDY    63  61  93 W3        29.67S
CLINTONVILLE   PTCLDY    61  61 100 W3        29.68R
WAUTOMA        FOG       63  63 100 NW5       29.70R VSB 1/2
$$

WIZ038-039-048-051-231100-
FOX VALLEY

CITY           SKY/WX    TMP DP  RH WIND       PRES   REMARKS
NWS GREEN BAY  CLOUDY    64  64 100 W3        29.65F
APPLETON       CLOUDY    63  63 100 W7        29.67R
OSHKOSH        CLOUDY    64  63  96 W5        29.68S
FOND DU LAC    MOCLDY    66  62  87 W5        29.69R
$$

WIZ022-050-052-231100-
EAST CENTRAL WISCONSIN

CITY           SKY/WX    TMP DP  RH WIND       PRES   REMARKS
EPHRAIM        FAIR      62  60  95 NW3       29.63S
WASHINGTON ISL PTSUNNY   61  60  95 CALM      29.62S
STURGEON BAY     N/A     64  63  96 W6          N/A
MANITOWOC      CLOUDY    66  64  93 NW9       29.66R
SHEBOYGAN      LGT RAIN  66  66 100 NW5       29.66S
$$

LMZ563-521-522-541>543-231100-
LAKESHORE

STATION/POSITION TIME  TEMP    WIND        PRES    VSBY  WAVE
                       AIR SEA DIR/SP/G                  HT/PER
                 (UTC) (F)     (DEG/KT/KT) (MB)    (MI)  (FT/S)
SHEBOYGAN LKSHOR 1000   66     280/  5/  6 1003.9R
KEWAUNEE LKSHORE 0942   66     310/  5/  9 1003.6R
NORTHPORT PIER   0940   65     290/  6/ 10 1003.0F
N MID LAKE BUOY  0950   59 55  280/  8/ 10 1003.3F         1/ 5
S GREEN BAY BUOY 1000   66     300/  6/  8 1003.8
CHAMBERS ISLAND  0940   63     220/  3/  5 1003.4S
MENOMINEE LKSHOR 0936          280/  5/  8 1002.9S
$$




USA.gov is the U.S. government's official web portal to all federal, state and local government web resources and services.